Location: Boissi�res
(45.2500°N, 2.3667°E)
Time: 00:19:46
(UTC+00:00)

COSMOS 2428 - Pass Details

Date: 03 March 2021
Orbit: 845 x 858 km, 70.9° (Epoch: 18 April)

Event Time Altitude Azimuth Distance (km) Brightness Sun altitude
Rises 21:00:06 0° 228° (SW) 3,395 6.0 -34.7°
Reaches altitude 10° 21:02:42 10° 236° (WSW) 2,464 5.3 -35.1°
Enters shadow 21:07:08 37° 285° (WNW) 1,298 4.0 -35.8°
Exits shadow 21:13:53 - 16° (NNE) 2,693 5.5 -36.8°
Sets 21:15:55 0° 22° (NNE) 3,424 6.0 -37.1°
